ICEYE-X53

导读 | 豆包AI

ICEYE-X53是芬兰商业合成孔径雷达卫星运营商Iceye公司的卫星,计划于2025年6月23日发射,具体发射国家暂未公布。该卫星隶属于Iceye的合成孔径雷达卫星星座,依托Iceye先进的卫星技术,它将提供高分辨率的全天候地球观测数据,可服务于灾害监测、资源勘探、国家安全等多个领域,助力拓展全球商业遥感服务能力。

基本信息
目录编号:
64584
目录名称:
ICEYE-X53
国际标识:
2025-135BJ
轨道中心:
EARTH
卫星名称:
ICEYE-X53
卫星全名:
ICEYE-X53
卫星状态:
在轨 (已飞行285 天)
发射日期:
2025-06-23 UTC
国别 :
(FI)
星等 :
--
轨道信息
数据来源 国际轨道数据
星历时间: 2026-04-03T22:55:54+0800
12小时前
查看轨道信息
半长轴: 6942.251km
偏心率: 0.0002222
轨道倾角: 97.742°
近地点辐角 171.971°
升交点赤经 210.705°
平近点角 188.155°
近地点: 562.571km
远地点: 565.657km
周期: 95.942分钟
每日圈数: 15.009021
详细信息
使用方式:
暂无
2D轨道图
3D轨道图
轨道高度分析图
轨道倾角分析图
轨道综合分析图
查看轨道综合分析图